TimeCST,TemperatureF,Dew PointF,Humidity,Sea Level PressureIn,VisibilityMPH,Wind Direction,Wind SpeedMPH,Gust SpeedMPH,PrecipitationIn,Events,Conditions,WindDirDegrees,DateUTC
12:53 AM,46.0,28.9,51,29.78,10.0,NNW,10.4,-,N/A,,Overcast,340,2012-12-25 06:53:00
1:40 AM,44.6,32.0,61,29.74,7.0,North,12.7,-,0.00,Rain-Thunderstorm,Light Thunderstorms and Rain,360,2012-12-25 07:40:00
1:53 AM,43.0,32.0,65,29.74,7.0,NNE,13.8,-,0.01,Rain-Thunderstorm,Light Thunderstorms and Rain,20,2012-12-25 07:53:00
2:43 AM,39.2,35.6,87,29.74,7.0,NNE,20.7,-,0.15,,Mostly Cloudy,30,2012-12-25 08:43:00
2:53 AM,39.9,35.1,83,29.73,6.0,NNE,19.6,25.3,0.15,,Haze,30,2012-12-25 08:53:00
3:53 AM,43.0,37.9,82,29.70,7.0,NE,9.2,-,N/A,,Overcast,50,2012-12-25 09:53:00
4:35 AM,46.4,41.0,81,29.69,9.0,NE,9.2,-,0.00,Rain-Thunderstorm,Light Thunderstorms and Rain,40,2012-12-25 10:35:00
4:53 AM,46.0,41.0,83,29.68,9.0,NNE,8.1,-,0.02,Thunderstorm,Thunderstorm,20,2012-12-25 10:53:00
5:39 AM,46.4,42.8,87,29.66,9.0,East,9.2,-,N/A,,Overcast,80,2012-12-25 11:39:00
5:53 AM,46.9,43.0,86,29.66,8.0,NE,9.2,-,N/A,,Overcast,50,2012-12-25 11:53:00
5:57 AM,46.4,42.8,87,29.66,9.0,NNE,10.4,-,N/A,Thunderstorm,Thunderstorm,30,2012-12-25 11:57:00
6:41 AM,46.4,44.6,93,29.70,6.0,North,16.1,-,0.00,Rain-Thunderstorm,Light Thunderstorms and Rain,350,2012-12-25 12:41:00
6:53 AM,46.9,44.1,90,29.72,6.0,North,17.3,-,0.01,Rain-Thunderstorm,Thunderstorms and Rain,350,2012-12-25 12:53:00
7:41 AM,44.6,42.8,93,29.65,5.0,NE,15.0,-,0.05,Rain-Thunderstorm,Thunderstorms and Rain,40,2012-12-25 13:41:00
7:53 AM,44.1,42.1,93,29.56,4.0,NE,24.2,36.8,0.09,Rain-Thunderstorm,Thunderstorms and Rain,40,2012-12-25 13:53:00
8:07 AM,44.6,42.8,93,29.62,7.0,NE,13.8,21.9,0.01,Rain,Light Rain,50,2012-12-25 14:07:00
8:21 AM,44.6,42.8,93,29.69,7.0,East,5.8,-,0.02,Rain,Light Rain,100,2012-12-25 14:21:00
8:53 AM,45.0,43.0,93,29.67,2.5,North,8.1,-,0.18,Rain-Thunderstorm,Heavy Thunderstorms and Rain,360,2012-12-25 14:53:00
9:23 AM,44.6,42.8,93,29.71,2.5,North,6.9,-,0.14,Rain-Thunderstorm,Heavy Thunderstorms and Rain,350,2012-12-25 15:23:00
9:45 AM,46.4,42.8,87,29.77,2.5,WNW,5.8,-,0.27,Rain,Heavy Rain,290,2012-12-25 15:45:00
9:53 AM,45.0,43.0,93,29.77,1.2,WNW,6.9,-,0.35,Rain,Heavy Rain,290,2012-12-25 15:53:00
10:05 AM,44.6,42.8,93,29.75,1.5,NNW,12.7,-,0.09,Rain,Heavy Rain,330,2012-12-25 16:05:00
10:09 AM,44.6,42.8,93,29.75,2.0,NNW,15.0,-,0.11,Rain,Heavy Rain,330,2012-12-25 16:09:00
10:30 AM,42.8,39.2,87,29.73,2.5,NNW,19.6,-,0.16,Rain,Rain,340,2012-12-25 16:30:00
10:53 AM,42.1,39.9,92,29.67,2.5,NNE,23.0,29.9,0.21,Rain,Light Rain,20,2012-12-25 16:53:00
11:43 AM,39.2,37.4,93,29.73,6.0,NNW,21.9,27.6,0.03,Rain,Light Rain,330,2012-12-25 17:43:00
11:53 AM,39.9,37.0,89,29.74,8.0,NW,21.9,-,0.03,Rain,Light Rain,320,2012-12-25 17:53:00
12:38 PM,37.4,35.6,93,29.77,2.5,NW,24.2,33.4,0.02,Rain,Rain,320,2012-12-25 18:38:00
12:48 PM,37.4,35.6,93,29.78,2.0,NW,24.2,29.9,0.04,Rain,Rain,310,2012-12-25 18:48:00
12:53 PM,37.0,34.0,89,29.78,2.0,NW,20.7,32.2,0.05,Rain,Heavy Rain,320,2012-12-25 18:53:00
1:24 PM,35.6,32.0,87,29.80,2.0,NW,21.9,32.2,0.06,Rain,Ice Pellets,320,2012-12-25 19:24:00
1:37 PM,33.8,30.2,87,29.81,1.0,NW,23.0,28.8,0.09,Snow,Light Snow,320,2012-12-25 19:37:00
1:44 PM,33.8,30.2,87,29.82,0.8,NW,19.6,26.5,N/A,Snow,Light Snow,320,2012-12-25 19:44:00
1:53 PM,33.1,30.9,92,29.83,0.5,NW,17.3,-,0.12,Fog-Snow,Snow,310,2012-12-25 19:53:00
2:48 PM,32.0,28.4,87,29.85,0.5,NNW,28.8,38.0,0.06,Fog-Snow,Snow,330,2012-12-25 20:48:00
2:53 PM,30.9,28.0,89,29.86,0.5,NNW,27.6,38.0,0.06,Fog-Snow,Snow,330,2012-12-25 20:53:00
3:17 PM,30.2,26.6,86,29.87,0.2,NNW,27.6,38.0,0.02,Fog-Snow,Heavy Snow,330,2012-12-25 21:17:00
3:33 PM,30.2,26.6,86,29.87,0.5,NNW,27.6,36.8,0.03,Fog-Snow,Snow,330,2012-12-25 21:33:00
3:53 PM,28.9,26.1,89,29.90,0.5,NW,26.5,33.4,0.05,Fog-Snow,Snow,320,2012-12-25 21:53:00
3:57 PM,28.4,26.6,93,29.89,0.2,NW,27.6,33.4,0.00,Fog-Snow,Snow,320,2012-12-25 21:57:00
4:04 PM,28.4,26.6,93,29.89,0.8,NNW,25.3,32.2,0.00,Snow,Light Snow,330,2012-12-25 22:04:00
4:14 PM,28.4,26.6,93,29.90,0.8,NNW,28.8,35.7,0.00,Snow,Light Snow,330,2012-12-25 22:14:00
4:17 PM,28.4,24.8,86,29.90,1.0,NNW,28.8,36.8,0.00,Snow,Light Snow,330,2012-12-25 22:17:00
4:53 PM,28.9,25.0,85,29.93,2.5,NW,26.5,35.7,0.00,Snow,Light Snow,320,2012-12-25 22:53:00
5:11 PM,28.4,24.8,86,29.93,1.5,NW,27.6,-,0.00,Snow,Light Snow,320,2012-12-25 23:11:00
5:35 PM,28.4,24.8,86,29.95,4.0,NW,26.5,33.4,0.00,Snow,Light Snow,320,2012-12-25 23:35:00
5:53 PM,30.0,24.1,79,29.97,7.0,NW,25.3,32.2,0.00,Snow,Light Snow,320,2012-12-25 23:53:00
6:53 PM,30.0,24.1,79,30.01,10.0,NW,21.9,-,0.00,,Overcast,310,2012-12-26 00:53:00
7:53 PM,30.0,24.1,79,30.06,10.0,NW,19.6,32.2,N/A,,Overcast,320,2012-12-26 01:53:00
8:53 PM,28.9,21.9,75,30.08,10.0,NNW,25.3,33.4,N/A,,Overcast,330,2012-12-26 02:53:00
9:53 PM,28.9,21.0,72,30.10,10.0,NNW,26.5,38.0,0.00,,Overcast,330,2012-12-26 03:53:00
10:24 PM,28.4,21.2,74,30.10,10.0,NNW,32.2,38.0,N/A,,Overcast,330,2012-12-26 04:24:00
10:53 PM,28.9,21.0,72,30.12,9.0,NNW,24.2,38.0,0.00,Snow,Light Snow,340,2012-12-26 04:53:00
11:53 PM,28.0,21.0,75,30.15,10.0,NNW,21.9,31.1,0.00,,Overcast,330,2012-12-26 05:53:00